Погода в Висконсин-Делсе

США     43°37′38″N   89°46′24″W
темп.,
°C
ветер,
м/с
пор.,
м/с
влажн.,
%
обл.,
%
осадки,
мм/ч
давл.,
гПа
погр.,
м
15 мая, сб
сб1501:00+11ю2276100 0.0 102219
04:00+9ю2377100 0.0 102251
07:00+10ююв41093100 0.6 1022426
10:00+11ююв4118730 0.1 1021747
13:00+13ююз6781100 0.2 1020775
16:00+12ю3690100 0.1 1019580
19:00+13юв249294 0.1 1018250
22:00+12ююв2698100 0.4 1019198
16 мая, вс
вс1601:00+11ююз389995 0.6 1020313
04:00+9юз3798100 0.1 1021202
07:00+10юз249452 0.1 1021141
10:00+16ю3475100 0.0 1021611
13:00+19ю325981 0.2 10201442
16:00+20ю325475 0.3 10191541
19:00+17ююв3674100 0.3 1019208
22:00+14ююв3581100 0.0 1020108
17 мая, пн
пн1701:00+11юв229360 0.0 102032
04:00+10юв239440 0.0 102142
07:00+11вюв259018 0.0 1021140
10:00+17вюв356846 0.0 1021740
13:00+21юв5654100 0.0 10201655
16:00+22вюв565151 0.0 10191869
19:00+18вюв58745 0.0 1019669
22:00+13вюв411965 0.0 1021313
18 мая, вт
вт1801:00+12вюв413965 0.0 1021364
04:00+11в4129774 0.0 1020317
07:00+12в51196100 0.3 1020377
10:00+16вюв5118781 0.1 1019783
13:00+18вюв71182100 0.3 10181038
16:00+15вюв51195100 0.6 1017727
19:00+15юв51198100 1.0 1016622
22:00+15юв41099100 0.3 1016488
19 мая, ср
ср1901:00+16юв41199100 0.4 1015464
04:00+16юв3799100 0.3 1015435
07:00+16ююв2899100 0.8 1016356
10:00+18ю3795100 0.1 1017405
13:00+22ю5877100 0.2 1017709
16:00+23ю61077100 0.8 10151240
19:00+21ю7148651 1.8 10151086
22:00+19ююз61590100 0.2 1017775